GFSNGP_2pvu_pres_132.txt.gz
Presure
228 240 231 238 243 238 232 238 245 274 310 301 317 284 278 222 256 238 269 231 229 247 222 257 234 250 243 269 260 281 297 288 297 286 283 298 196 236 231 193 217 187 180 211
237 231 237 237 232 232 228 235 252 316 296 297 301 272 229 248 224 239 258 229 237 244 247 247 246 230 244 248 255 274 259 261 269 281 272 289 240 193 201 195 182 180 231 225
236 229 224 226 229 225 227 230 277 302 286 272 285 265 264 253 237 244 251 263 237 240 250 241 238 236 250 254 256 257 267 259 244 247 247 264 270 278 259 197 188 239 222 193
221 226 220 224 226 220 239 247 308 294 266 275 269 273 254 235 236 240 238 263 244 249 233 248 229 238 246 231 254 231 237 239 238 239 255 255 251 253 254 251 227 197 234 205
222 219 223 219 219 221 238 244 306 287 266 266 263 253 259 268 240 246 229 236 246 240 227 239 224 236 236 227 227 243 234 227 229 228 237 234 239 237 242 250 248 252 239 188
205 221 220 220 217 229 243 249 315 282 266 263 264 259 253 258 255 267 242 231 233 248 230 235 228 219 228 221 225 219 236 236 239 240 227 224 232 239 234 230 243 242 252 244
215 224 224 217 225 233 236 287 301 290 271 261 258 253 262 244 250 253 266 237 241 218 217 219 232 230 216 226 235 232 219 218 234 217 227 235 241 236 230 233 237 241 248 236
218 222 214 222 227 244 234 300 285 292 280 263 260 253 254 255 244 249 253 259 235 244 221 215 224 229 230 226 220 225 228 229 227 232 222 231 233 227 230 249 246 250 250 259
220 222 223 221 241 243 277 295 288 312 297 270 260 249 247 244 245 241 236 227 248 261 241 225 227 239 215 224 232 214 233 222 224 227 228 227 228 224 237 245 243 237 242 250
227 225 225 238 237 272 294 296 287 324 283 280 275 260 250 248 249 245 238 245 239 234 244 252 257 221 223 207 216 220 240 225 224 223 222 220 226 233 237 237 239 236 235 230
226 235 241 243 262 295 299 328 351 336 302 275 264 267 258 255 250 248 247 256 228 235 236 238 232 241 247 260 226 222 225 206 220 225 213 235 223 236 234 234 226 228 243 232
227 233 245 254 279 297 329 366 353 329 300 285 269 259 255 251 253 259 258 251 241 253 262 247 231 244 255 243 247 246 251 227 230 234 225 230 226 229 239 242 249 253 245 241
240 245 248 267 306 280 352 345 342 323 301 286 275 267 260 256 249 249 249 249 252 251 241 244 239 249 233 230 232 245 247 247 245 236 252 265 268 270 265 260 249 241 247 253
234 246 261 293 294 345 331 326 337 318 308 289 278 270 263 260 259 252 251 250 250 249 252 254 253 259 248 248 248 241 241 255 280 313 277 251 250 250 250 264 264 264 268 268
249 251 277 288 345 329 317 310 315 324 305 291 289 277 267 265 262 261 258 256 254 252 253 256 264 267 277 268 264 290 292 303 314 332 316 303 297 291 288 288 288 286 284 284
242 261 293 279 327 317 309 304 303 305 314 296 285 279 278 278 274 266 261 259 257 258 259 259 262 266 275 285 284 285 305 317 298 292 286 279 278 276 277 274 272 272 272 269
248 271 283 336 314 308 304 295 323 299 298 306 297 289 280 275 272 270 270 275 276 276 274 276 278 276 275 281 294 329 291 281 273 267 268 267 265 264 264 265 265 266 277 278
256 282 276 328 317 309 300 289 298 301 310 295 294 295 289 286 284 283 279 276 275 275 275 275 276 284 295 315 285 276 267 262 260 262 261 260 261 263 261 258 262 271 270 276
270 275 326 317 303 295 297 288 290 297 296 309 301 290 290 286 286 284 279 278 276 278 285 289 283 305 281 270 265 257 261 258 259 257 257 257 255 257 262 264 269 269 274 282
276 260 333 342 355 345 317 300 295 291 296 303 310 311 291 289 287 287 287 285 283 279 275 308 279 268 262 258 259 255 255 255 254 252 252 254 253 256 260 265 269 282 291 282
288 256 360 345 338 353 344 317 310 336 366 375 361 318 326 313 293 281 277 278 285 308 274 266 260 257 252 254 255 252 245 247 250 253 254 257 260 257 260 279 316 335 335 308
272 263 329 342 355 351 349 352 367 364 357 354 354 352 345 336 328 318 306 285 268 263 255 253 254 255 252 249 247 249 249 253 257 254 254 253 253 268 299 318 339 339 327 432
266 254 329 339 334 339 338 336 332 325 321 317 312 307 299 292 283 273 261 255 254 252 253 253 252 250 247 243 242 254 250 256 254 253 261 264 277 315 321 344 310 343 453 436
265 250 283 307 302 297 289 284 287 286 282 280 277 276 272 261 260 253 250 253 254 251 253 250 249 247 248 246 251 259 261 255 259 265 270 306 306 319 346 315 348 448 427 396
247 250 258 322 299 286 277 274 272 271 272 264 259 258 258 256 251 249 252 253 252 251 250 251 250 246 251 254 262 256 257 253 268 280 296 302 317 348 333 361 443 422 397 388
259 252 250 274 324 297 280 271 265 269 255 256 257 256 253 253 251 251 255 255 253 251 251 250 242 247 257 261 252 252 261 269 289 295 301 316 352 340 365 437 418 397 390 433
251 252 251 268 289 325 298 281 270 267 262 257 253 252 250 255 256 251 252 253 251 247 243 250 255 258 264 253 260 262 270 285 293 297 314 352 340 415 433 417 399 421 460 445

GFSNGP_2pvu_pres_135.txt.gz
Presure
236 231 230 217 242 236 237 238 238 236 242 241 236 281 306 308 286 277 260 229 257 258 232 233 252 242 231 282 265 256 278 289 292 274 284 323 201 191 185 254 190 203 180 176
241 232 245 230 233 238 239 228 234 227 235 239 246 318 320 302 283 275 225 256 257 254 229 248 224 250 253 251 250 263 252 275 270 294 289 308 332 240 244 244 268 204 226 210
229 234 238 238 235 230 228 225 227 226 238 228 256 301 299 295 261 266 248 238 243 259 253 234 240 248 223 249 247 260 250 258 251 277 278 287 317 281 245 237 199 246 198 201
238 235 227 228 232 221 219 224 220 235 225 234 264 293 286 270 267 255 250 240 242 257 249 236 230 246 238 250 250 242 258 250 255 249 254 256 272 285 249 227 240 221 198 192
225 227 230 220 215 220 218 217 232 228 232 238 245 294 279 270 271 246 247 240 239 236 245 233 243 234 241 248 249 246 249 257 242 236 239 245 255 255 273 272 193 268 192 188
234 226 210 218 219 218 213 222 234 223 232 247 242 293 278 267 265 253 261 272 241 239 233 237 234 234 228 225 237 249 234 230 241 256 239 246 244 249 260 257 254 199 261 175
221 214 217 217 216 209 214 232 223 222 229 252 298 288 278 269 262 251 254 261 260 245 235 230 244 216 224 232 226 227 227 227 223 238 243 238 244 240 248 256 251 255 234 234
217 219 221 210 215 218 225 220 230 224 244 275 298 292 280 268 260 256 251 245 252 255 255 226 230 236 228 226 224 215 221 219 230 226 224 241 235 238 235 236 243 244 244 248
218 215 219 219 218 225 233 235 231 240 259 309 302 283 296 272 260 258 257 250 241 242 255 260 241 227 230 223 219 223 232 224 221 223 227 232 228 226 243 243 227 244 249 254
216 217 219 222 211 222 235 229 243 264 313 298 287 283 299 291 265 254 251 244 250 240 236 245 248 246 236 215 225 225 219 226 198 240 233 221 217 224 227 232 235 236 233 241
218 217 238 229 222 229 228 244 260 316 302 386 315 326 308 279 280 263 256 250 251 241 240 236 227 237 252 239 223 207 225 228 236 224 218 226 235 239 229 248 239 238 234 234
221 218 215 226 225 231 247 252 315 291 367 366 351 330 295 292 273 268 265 252 250 252 253 240 248 256 237 242 253 250 251 250 222 221 222 233 235 235 239 249 247 237 240 248
227 210 213 222 234 243 253 284 309 356 346 350 338 316 307 283 276 262 257 266 270 270 257 257 266 254 252 230 234 238 235 252 250 251 260 263 264 265 240 244 251 248 237 243
211 219 230 229 240 252 260 293 348 333 327 329 334 316 304 287 273 267 263 257 255 254 254 252 250 251 251 251 244 242 253 254 258 255 249 248 252 251 259 255 259 259 264 267
227 222 223 237 247 259 303 284 332 319 311 309 332 321 307 291 281 270 262 260 258 257 254 254 254 256 255 258 264 266 269 273 277 286 300 295 299 330 311 304 305 303 300 297
221 228 234 254 250 281 283 338 322 313 308 301 306 320 312 309 288 277 280 265 260 260 261 261 262 263 264 261 264 267 277 287 286 285 287 324 304 292 288 284 281 279 278 275
231 231 246 247 260 299 270 328 324 314 301 299 300 301 320 302 295 289 286 282 274 270 269 270 270 275 279 277 277 284 278 283 288 285 302 286 284 276 272 267 268 270 267 267
223 242 250 249 266 286 336 319 307 302 305 289 297 307 293 315 299 287 283 280 277 275 275 273 273 274 278 280 277 282 284 294 309 287 277 272 266 264 263 260 263 263 267 268
240 240 235 251 274 268 359 359 339 319 296 292 288 294 298 308 292 302 295 291 288 286 284 283 281 281 281 286 287 293 300 287 274 268 261 260 261 260 256 257 260 264 269 268
235 242 239 260 277 263 363 344 381 359 337 316 297 292 292 296 300 308 291 288 291 287 288 288 288 283 284 285 300 288 271 265 259 258 256 254 254 254 260 264 265 272 269 261
238 239 247 254 285 266 345 375 355 328 323 325 321 313 306 305 305 305 307 307 303 290 282 279 280 282 326 286 268 260 255 256 257 255 254 254 252 257 262 267 268 263 267 309
243 239 245 262 276 271 267 319 339 354 357 365 376 376 370 368 367 335 318 323 327 318 302 292 303 282 266 257 254 254 255 256 254 255 255 255 258 265 265 259 260 302 303 314
241 241 247 269 266 264 255 274 303 291 285 335 334 333 333 333 330 323 314 307 299 295 286 273 258 254 255 253 253 256 255 255 258 252 255 261 269 267 267 279 302 302 316 360
237 246 252 264 260 256 250 259 286 296 284 278 273 285 283 280 277 275 274 266 255 259 257 253 252 254 254 255 256 255 253 251 254 262 262 265 263 274 285 299 301 319 387 358
243 245 254 250 260 260 249 252 268 295 301 285 277 267 267 256 257 255 257 255 254 255 254 252 252 256 258 258 254 252 255 257 261 261 259 272 277 290 295 304 323 381 349 443
247 244 246 256 258 253 240 255 263 286 288 312 292 279 272 267 262 258 259 260 254 253 256 261 263 260 259 255 253 255 258 260 255 258 275 279 291 291 306 326 366 349 441 453
249 256 258 257 263 251 245 261 271 289 296 328 320 302 286 278 273 268 262 261 262 262 263 263 261 262 260 258 256 259 263 258 265 273 281 292 290 306 329 360 416 449 455 456

GFSNGP_2pvu_pres_138.txt.gz
Presure
272 262 254 251 176 243 239 234 226 231 232 241 234 241 233 237 235 281 318 289 277 243 260 233 237 243 240 240 271 249 246 262 260 268 268 254 261 283 391 260 210 190 202 195
254 247 259 255 240 235 227 227 229 231 231 234 230 230 233 241 235 335 309 283 273 256 225 268 225 238 242 260 259 259 264 263 273 270 264 264 279 310 336 211 187 193 195 213
241 241 237 232 227 227 231 235 229 231 233 224 226 231 236 233 244 319 305 270 271 248 236 265 249 239 214 234 235 225 266 257 248 266 278 274 274 300 320 259 202 187 202 203
233 234 235 236 234 226 231 229 230 224 217 221 228 228 244 232 248 310 293 268 271 244 240 258 254 258 228 241 226 231 248 259 254 256 263 268 269 277 222 193 201 204 198 204
232 231 237 237 231 230 230 228 220 215 219 222 219 235 234 228 251 298 287 275 262 254 251 231 246 249 248 239 241 228 248 250 260 254 252 251 268 216 265 243 199 202 192 238
228 234 232 227 228 229 222 216 219 219 221 217 229 241 240 232 254 302 280 272 270 260 252 249 244 248 225 239 227 243 236 240 251 245 231 249 252 260 269 275 195 195 264 197
231 222 225 234 226 217 214 221 216 220 221 228 230 234 237 244 277 292 285 271 268 254 251 265 240 237 243 237 239 229 230 241 236 239 250 241 242 249 251 265 204 217 204 195
223 227 224 219 218 217 218 218 222 215 217 219 230 231 241 264 300 288 282 275 267 263 258 252 257 245 236 229 246 231 213 232 228 232 231 237 244 246 243 252 253 192 225 206
226 218 218 218 216 218 216 212 212 225 211 234 231 250 254 303 299 289 277 277 274 264 256 252 242 252 256 237 224 243 233 219 238 230 225 238 236 233 219 247 247 253 253 227
223 217 218 218 219 222 204 216 225 214 229 230 245 267 307 291 295 284 280 290 277 267 263 250 250 240 254 247 244 228 231 242 221 230 232 232 236 232 237 249 242 251 246 247
223 218 219 221 215 214 223 213 217 227 214 246 299 370 382 373 342 281 274 276 290 270 265 261 254 257 243 247 249 243 235 238 234 237 226 234 237 242 239 239 241 245 248 252
223 222 222 216 220 223 224 232 224 238 255 316 308 363 359 361 331 327 278 271 286 280 268 256 250 251 243 247 242 250 251 249 249 237 240 242 243 241 245 244 240 227 209 249
214 218 216 223 232 233 223 232 243 256 300 281 349 339 346 336 328 311 311 284 283 272 267 272 263 254 255 256 252 241 244 248 244 242 247 272 266 261 260 256 255 254 251 254
215 219 222 228 229 228 233 248 252 270 283 344 331 319 315 337 320 306 310 287 271 274 262 259 260 260 267 268 265 265 266 265 253 261 264 271 252 249 249 250 252 262 263 265
212 224 223 225 234 229 246 244 261 298 267 330 319 313 309 305 328 311 300 300 279 269 273 269 258 253 253 253 257 262 264 264 267 267 268 270 275 277 282 299 297 308 328 323
224 224 216 214 224 240 247 254 267 287 316 323 317 304 305 305 305 322 306 294 289 280 269 267 266 267 268 266 261 261 262 269 269 265 269 274 290 290 296 299 321 323 303 293
221 218 232 228 233 235 247 256 275 266 346 329 309 305 297 291 299 297 324 312 299 288 279 275 270 265 262 261 263 263 264 264 271 284 288 283 291 294 310 323 303 289 280 275
226 233 229 224 234 244 248 255 288 261 351 354 331 309 296 292 287 296 292 301 315 306 297 289 283 279 278 277 279 280 286 284 279 283 291 292 295 302 311 288 276 267 265 264
231 228 222 233 233 244 249 256 287 256 344 350 364 336 319 299 292 286 290 295 293 294 302 298 294 291 289 286 284 282 284 290 293 297 304 297 307 289 271 264 263 264 264 265
234 233 234 230 238 246 247 256 274 264 269 322 368 366 353 335 315 305 292 288 290 293 300 297 294 292 289 287 291 290 286 293 287 290 309 288 266 262 262 262 265 267 268 264
233 224 234 236 240 241 247 251 268 273 254 274 318 303 352 369 357 330 319 307 302 295 294 293 298 306 304 298 295 293 291 290 314 282 263 263 259 261 264 264 263 262 269 268
228 224 228 240 242 237 241 252 261 268 255 257 273 308 306 293 333 360 359 361 370 364 341 316 308 314 319 319 313 308 303 267 262 261 260 260 263 263 260 263 265 267 265 267
227 233 227 238 245 238 247 249 260 265 267 247 265 272 289 301 290 282 280 294 319 320 318 316 312 307 300 278 264 261 258 256 256 259 260 260 264 262 264 264 267 266 272 287
235 233 240 245 240 244 250 253 257 261 267 245 260 270 282 292 303 295 283 275 270 266 266 265 264 264 260 260 260 260 262 263 265 268 272 273 268 272 264 267 267 279 288 293
238 242 239 245 244 249 245 252 256 261 249 259 254 269 280 292 304 308 304 291 280 274 268 264 262 262 263 264 264 262 263 267 267 267 267 271 267 265 267 271 281 287 297 312
244 229 241 247 248 246 249 253 260 254 257 253 264 278 282 296 313 323 319 312 305 294 287 280 275 270 268 266 267 267 266 269 272 275 276 267 266 267 276 284 291 300 320 361
238 242 245 248 245 250 248 259 257 248 258 264 277 286 297 314 326 339 329 324 322 319 313 303 293 288 282 281 280 280 281 286 291 293 266 267 273 280 286 294 307 334 374 437

GFSNGP_2pvu_pres_144.txt.gz
Presure
311 307 317 325 316 309 310 326 321 302 302 278 275 263 253 245 242 243 234 231 229 232 229 226 248 252 296 275 265 260 262 240 245 257 254 266 286 269 269 280 283 269 266 253
309 311 307 332 304 300 292 307 326 315 285 264 257 244 236 244 232 230 233 223 229 237 221 232 239 263 298 270 261 253 255 242 247 239 247 242 253 274 278 316 285 261 255 249
292 288 309 274 275 284 275 270 271 258 251 242 241 240 231 229 232 231 224 227 228 224 221 233 237 263 298 274 263 259 254 247 252 237 242 239 250 255 282 261 282 267 255 252
271 298 267 264 261 263 255 256 251 243 246 241 231 177 191 222 221 232 232 227 227 221 218 239 231 251 293 279 265 247 249 257 237 242 228 251 230 257 249 270 316 271 255 257
298 271 260 259 254 245 245 244 243 234 230 227 223 218 216 232 228 224 226 225 222 213 228 230 234 248 263 286 273 260 239 240 256 249 239 235 240 256 255 255 255 275 292 260
263 255 247 255 240 243 228 233 231 230 220 219 225 226 221 223 224 224 231 224 223 228 229 239 239 247 263 282 270 262 246 240 252 251 243 229 237 240 256 258 245 244 261 278
255 249 225 247 230 231 239 240 231 227 221 222 226 221 223 224 225 217 220 219 218 242 233 241 248 252 277 285 280 262 251 240 248 255 244 243 239 240 242 244 249 250 253 268
244 237 229 240 229 232 231 232 228 225 222 220 222 222 215 218 225 225 234 238 232 245 238 256 262 283 288 297 277 270 257 248 236 241 251 236 238 241 240 242 248 240 250 249
244 237 233 227 224 231 227 226 226 222 222 220 220 221 213 228 229 233 222 239 257 275 302 294 289 287 283 286 283 270 264 262 249 236 242 239 248 230 240 238 242 246 247 246
240 232 231 232 230 225 224 224 219 214 214 223 223 221 223 231 220 244 278 316 303 375 383 364 333 279 279 277 280 278 263 259 255 268 252 244 243 240 244 237 235 239 244 249
232 230 233 227 223 226 223 219 216 222 219 225 219 224 231 232 265 305 290 362 359 383 359 363 339 321 290 276 276 279 276 263 256 259 258 254 252 249 245 244 245 241 239 242
223 222 229 224 223 224 224 223 222 218 227 222 224 228 244 261 309 277 355 341 331 368 341 338 335 315 310 281 269 271 276 275 265 258 254 260 259 257 257 254 251 250 252 252
236 224 221 218 222 224 214 221 218 219 220 223 229 241 249 264 300 326 347 330 320 322 341 328 326 315 308 302 278 270 269 267 271 275 273 262 258 264 265 258 261 270 261 253
222 223 225 221 212 223 222 222 227 222 227 231 236 242 252 269 300 311 347 334 319 311 319 338 321 313 306 312 303 283 274 261 259 262 267 272 274 272 269 267 269 273 276 276
221 217 218 220 224 221 234 225 229 233 227 230 240 247 252 261 285 264 362 339 322 311 306 313 329 317 305 298 306 302 286 279 275 273 271 269 266 267 267 269 274 274 275 283
212 219 224 227 235 226 228 232 232 233 228 231 237 248 251 253 267 281 266 364 337 319 307 299 299 330 322 310 300 295 306 292 286 280 278 276 275 276 275 276 276 277 277 280
227 232 235 225 227 232 235 228 226 228 230 234 245 246 252 249 260 264 272 257 309 346 330 316 302 293 291 302 320 308 300 297 302 289 278 278 279 279 278 281 283 280 281 289
225 225 231 231 231 233 229 230 226 227 238 239 247 240 251 249 255 263 249 265 261 278 307 332 333 319 305 294 288 290 300 311 307 302 301 302 302 300 298 298 297 297 298 301
230 232 228 229 227 236 230 234 229 232 233 240 245 247 252 249 251 258 264 248 267 263 276 288 313 301 317 343 327 312 302 294 287 287 289 293 307 307 311 306 309 308 305 306
221 223 230 236 230 230 227 227 238 236 240 240 247 241 247 249 248 255 264 262 253 268 269 280 291 296 303 315 302 284 298 361 342 321 310 304 300 297 296 297 302 308 314 335
224 228 231 232 226 231 227 226 233 239 240 243 247 242 245 249 257 253 261 260 257 259 268 274 283 291 296 304 312 308 306 298 283 283 293 315 327 329 326 323 316 310 299 284
224 220 221 224 227 239 244 240 235 236 237 238 247 244 244 256 257 250 262 257 255 261 266 276 285 292 295 300 307 315 316 315 312 307 300 295 287 283 280 278 277 280 281 282
215 217 218 222 230 237 242 248 239 233 237 239 249 249 243 252 251 259 260 258 256 263 269 282 293 292 297 310 318 323 325 326 327 327 327 328 330 330 330 331 334 341 348 352
221 217 220 225 232 242 239 252 250 246 237 241 252 245 244 251 255 264 257 256 261 268 282 294 295 305 318 332 337 337 340 342 337 333 331 332 338 343 348 342 337 330 317 302
220 234 235 239 233 235 241 247 254 246 238 250 246 246 255 253 263 258 254 263 268 286 297 306 326 345 345 343 343 344 331 332 337 337 336 328 319 310 292 287 280 274 273 277
233 240 236 233 238 247 241 251 251 243 249 250 257 255 260 266 257 255 261 272 293 305 350 357 355 355 355 352 342 338 329 316 301 292 290 282 271 268 269 273 277 281 285 291
244 236 246 240 247 250 253 255 248 248 254 255 256 261 259 256 255 263 282 300 378 385 378 373 368 362 345 337 301 295 299 286 272 266 266 268 270 272 277 281 286 299 325 354

GFSNGP_2pvu_pres_147.txt.gz
Presure
346 340 323 317 312 303 303 313 319 313 320 307 311 326 302 284 278 265 257 249 248 243 234 229 235 232 229 228 232 240 301 278 262 262 253 250 243 251 249 264 252 255 263 271
314 306 305 299 291 302 309 309 313 305 291 315 316 286 270 265 253 250 247 238 233 225 231 232 224 239 230 223 237 241 255 278 260 258 260 232 251 236 240 278 267 265 249 253
303 299 300 287 295 295 294 295 293 300 326 320 274 261 254 246 244 239 233 223 225 227 227 228 238 233 224 217 234 233 246 288 268 261 252 243 252 233 247 264 269 244 243 255
294 299 292 277 279 277 270 263 262 269 271 258 253 248 241 234 231 227 224 226 223 224 233 227 227 219 232 220 233 236 240 250 274 269 247 238 248 242 247 245 266 260 251 251
295 286 279 267 269 260 255 248 250 246 245 242 239 237 232 222 224 225 223 230 233 230 218 236 226 226 217 229 236 230 238 250 285 261 255 247 242 248 258 244 273 261 244 238
286 284 262 262 259 254 242 235 242 233 238 226 232 228 220 224 226 230 227 228 214 216 222 229 226 228 229 243 229 236 242 252 274 267 259 244 240 246 256 243 243 253 257 241
294 263 257 257 245 241 241 239 224 223 230 230 220 226 224 226 225 217 215 218 226 226 224 222 235 246 230 237 238 252 262 286 279 267 262 258 244 240 254 238 240 239 255 260
270 250 253 248 234 233 225 232 234 233 231 226 226 227 225 218 213 218 221 218 220 216 235 247 252 256 272 284 290 287 288 287 283 272 269 251 247 241 247 242 239 242 240 252
260 258 244 232 236 226 227 226 228 226 231 227 221 218 215 221 224 213 229 217 232 253 308 318 304 294 293 292 293 295 279 279 273 284 269 265 250 244 244 242 245 243 220 236
249 240 241 235 225 223 224 227 226 224 222 220 212 217 221 217 213 210 233 239 267 301 368 359 354 351 367 361 341 312 277 276 275 277 277 267 263 253 248 245 242 240 248 244
234 240 239 230 227 228 231 225 225 221 221 214 223 216 220 217 224 235 249 265 303 342 360 344 347 358 356 341 341 326 298 273 268 271 273 270 270 264 263 262 250 244 251 250
231 231 231 232 231 226 223 221 221 222 222 222 221 221 215 230 230 245 263 279 298 335 352 333 324 342 333 333 336 321 314 293 278 268 268 273 274 264 265 263 264 264 270 256
225 225 219 232 223 219 214 217 222 217 221 215 224 233 230 234 226 247 257 264 279 263 357 333 326 316 309 324 331 327 312 322 293 281 271 265 268 276 273 265 264 263 267 265
234 234 231 221 219 222 223 207 224 225 226 228 229 234 227 228 242 252 250 260 269 275 258 354 331 315 308 304 327 319 318 312 306 304 285 276 265 265 267 271 274 274 275 273
234 223 223 224 218 216 220 223 228 220 233 229 227 227 221 241 248 252 249 251 261 264 265 266 287 339 323 307 301 312 327 313 306 307 311 305 290 281 276 272 266 265 268 268
224 223 214 214 215 225 226 226 226 232 227 229 229 231 217 239 244 246 247 250 251 262 261 268 267 272 289 313 324 311 295 293 329 314 306 301 304 308 296 287 287 284 281 280
224 219 213 224 228 222 225 233 233 233 233 233 232 233 225 238 247 240 245 251 258 252 263 260 265 263 267 278 291 300 331 324 310 294 288 300 323 314 307 305 310 305 297 294
215 224 231 228 234 236 234 229 235 231 227 224 228 229 235 238 247 242 245 243 254 251 259 265 262 245 265 267 279 291 295 309 307 302 328 327 308 296 291 291 299 316 307 310
228 224 222 221 223 224 228 226 225 226 232 229 235 237 233 233 238 247 252 239 252 250 259 266 262 257 262 267 276 287 298 298 297 304 314 318 307 297 307 329 346 355 337 330
223 215 223 220 227 221 221 222 220 222 233 238 243 251 235 233 237 247 255 245 253 252 262 263 257 258 264 268 278 288 292 295 301 307 311 318 321 322 319 320 313 295 293 297
226 230 220 225 224 217 217 219 217 224 230 241 238 241 259 250 238 248 250 252 256 256 263 260 254 265 266 277 284 292 297 305 310 315 320 327 328 331 332 334 339 344 346 348
227 225 222 220 216 214 214 221 218 230 241 231 241 239 252 249 240 248 254 256 254 263 252 254 266 265 277 286 295 311 321 326 330 333 333 333 336 340 342 339 338 341 344 342
219 221 222 227 221 224 216 227 235 233 232 237 244 241 253 247 246 252 253 253 260 258 256 255 266 280 292 310 340 343 342 343 345 346 347 347 342 338 339 337 327 312 297 288
227 219 209 226 234 246 243 236 244 236 247 238 249 257 253 249 250 254 251 256 249 256 254 267 282 296 359 366 362 360 358 360 358 358 343 337 315 295 289 280 274 269 268 269
214 217 231 226 232 233 257 246 239 246 239 254 259 257 253 253 254 252 255 253 253 256 269 281 296 399 396 390 385 381 374 358 330 295 297 286 273 267 266 267 269 272 277 284
222 224 224 235 236 242 254 255 248 241 259 261 254 252 254 256 253 254 257 255 256 268 280 296 365 348 346 358 342 316 295 300 290 273 267 267 268 268 269 272 279 287 297 314
219 228 234 234 242 266 257 259 256 264 262 257 253 255 257 254 251 259 256 254 269 286 299 361 339 329 317 290 296 304 284 268 267 268 266 267 270 273 280 289 300 317 336 342